RADUGA-1 8 [-]

Last updated on Oct. 27, 2020, 5:53 a.m. UTC

1 34264U 09010A   20300.62833635 -.00000160  00000-0  00000+0 0  9997
2 34264   8.0663  58.5610 0013822 341.2305 212.6632  0.99831188 42604
UTC
Height (km)
Latitude
Longitude
Inclination
Orbital Period
UTC large
Height (km)
Speed (km/s)
/
Latitude / Longitude
Inclination (degrees)
Orbital Period (minutes)
Azimuth
Elevation
Range (km)
Doppler Factor
iOS Compass Heading
iOS Angle

Next 30 passes for location: Hong Kong

Rise time Rise Azimuth (degrees) Set time Set Azimuth (degrees) Duration Max altitude (degrees)

No matching passes for this satellites